Time,TemperatureF,DewpointF,PressureIn,WindDirection,WindDirectionDegrees,WindSpeedMPH,WindSpeedGustMPH,Humidity,HourlyPrecipIn,Conditions,Clouds,dailyrainin,SolarRadiationWatts/m^2,SoftwareType,DateUTC
2013-01-17 00:03:00,34.9,27.1,30.18,NW,322,0.0,0.0,73,0.00,,,0.00,0.00,VWS V14.01,2013-01-17 08:03:00,
2013-01-17 00:08:00,34.9,27.1,30.18,NW,322,0.0,0.0,73,0.00,,,0.00,0.00,VWS V14.01,2013-01-17 08:08:00,
2013-01-17 00:13:00,34.7,27.0,30.18,NW,322,0.0,0.0,73,0.00,,,0.00,0.00,VWS V14.01,2013-01-17 08:13:00,
2013-01-17 00:18:00,34.6,26.9,30.18,NW,322,0.0,0.0,73,0.00,,,0.00,0.00,VWS V14.01,2013-01-17 08:18:00,
2013-01-17 00:23:00,34.6,27.2,30.18,NW,322,0.0,0.0,74,0.00,,,0.00,0.00,VWS V14.01,2013-01-17 08:23:00,
2013-01-17 00:28:00,34.6,27.2,30.18,NW,322,0.0,0.0,74,0.00,,,0.00,0.00,VWS V14.01,2013-01-17 08:28:00,
2013-01-17 00:33:00,34.6,27.2,30.18,NW,322,0.0,0.0,74,0.00,,,0.00,0.00,VWS V14.01,2013-01-17 08:33:00,
2013-01-17 00:38:00,34.7,27.3,30.18,NW,322,0.0,0.0,74,0.00,,,0.00,0.00,VWS V14.01,2013-01-17 08:38:00,
2013-01-17 00:43:00,34.9,27.5,30.18,NW,322,0.0,0.0,74,0.00,,,0.00,0.00,VWS V14.01,2013-01-17 08:43:00,
2013-01-17 00:48:00,34.9,27.5,30.18,NW,322,0.0,0.0,74,0.00,,,0.00,0.00,VWS V14.01,2013-01-17 08:48:00,
2013-01-17 00:53:00,34.9,27.8,30.18,NW,322,0.0,0.0,75,0.00,,,0.00,0.00,VWS V14.01,2013-01-17 08:53:00,
2013-01-17 00:58:00,34.9,27.8,30.18,NW,322,0.0,0.0,75,0.00,,,0.00,0.00,VWS V14.01,2013-01-17 08:58:00,
2013-01-17 01:03:00,34.7,27.6,30.17,NW,322,0.0,0.0,75,0.00,,,0.00,0.00,VWS V14.01,2013-01-17 09:03:00,
2013-01-17 01:08:00,34.4,27.3,30.17,NW,322,0.0,0.0,75,0.00,,,0.00,0.00,VWS V14.01,2013-01-17 09:08:00,
2013-01-17 01:13:00,34.1,27.0,30.17,NW,322,0.0,0.0,75,0.00,,,0.00,0.00,VWS V14.01,2013-01-17 09:13:00,
2013-01-17 01:18:00,34.0,26.9,30.17,NW,322,0.0,0.0,75,0.00,,,0.00,0.00,VWS V14.01,2013-01-17 09:18:00,
2013-01-17 01:23:00,33.7,26.6,30.17,NW,322,0.0,0.0,75,0.00,,,0.00,0.00,VWS V14.01,2013-01-17 09:23:00,
2013-01-17 01:28:00,33.7,26.6,30.17,NW,322,0.0,0.0,75,0.00,,,0.00,0.00,VWS V14.01,2013-01-17 09:28:00,
2013-01-17 01:33:00,33.5,26.8,30.17,NW,322,0.0,0.0,76,0.00,,,0.00,0.00,VWS V14.01,2013-01-17 09:33:00,
2013-01-17 01:38:00,33.4,26.7,30.17,NW,322,0.0,0.0,76,0.00,,,0.00,0.00,VWS V14.01,2013-01-17 09:38:00,
2013-01-17 01:43:00,33.2,26.5,30.17,NW,322,0.0,0.0,76,0.00,,,0.00,0.00,VWS V14.01,2013-01-17 09:43:00,
2013-01-17 01:48:00,33.2,26.5,30.17,NW,322,0.0,0.0,76,0.00,,,0.00,0.00,VWS V14.01,2013-01-17 09:48:00,
2013-01-17 01:53:00,33.1,26.4,30.17,NW,322,0.0,0.0,76,0.00,,,0.00,0.00,VWS V14.01,2013-01-17 09:53:00,
2013-01-17 01:58:00,33.1,26.4,30.17,NW,322,0.0,0.0,76,0.00,,,0.00,0.00,VWS V14.01,2013-01-17 09:58:00,
2013-01-17 02:03:00,33.1,26.4,30.18,NW,322,0.0,0.0,76,0.00,,,0.00,0.00,VWS V14.01,2013-01-17 10:03:00,
2013-01-17 02:08:00,33.1,26.4,30.18,NW,322,0.0,0.0,76,0.00,,,0.00,0.00,VWS V14.01,2013-01-17 10:08:00,
2013-01-17 02:13:00,33.1,26.4,30.18,NW,322,0.0,0.0,76,0.00,,,0.00,0.00,VWS V14.01,2013-01-17 10:13:00,
2013-01-17 02:18:00,33.2,26.5,30.17,NW,322,0.0,0.0,76,0.00,,,0.00,0.00,VWS V14.01,2013-01-17 10:18:00,
2013-01-17 02:23:00,33.1,26.7,30.17,NW,322,0.0,0.0,77,0.00,,,0.00,0.00,VWS V14.01,2013-01-17 10:23:00,
2013-01-17 02:28:00,33.1,26.7,30.17,NW,322,0.0,0.0,77,0.00,,,0.00,0.00,VWS V14.01,2013-01-17 10:28:00,
2013-01-17 02:33:00,33.1,26.7,30.17,NW,322,0.0,0.0,77,0.00,,,0.00,0.00,VWS V14.01,2013-01-17 10:33:00,
2013-01-17 02:38:00,33.1,26.7,30.17,NW,322,0.0,0.0,77,0.00,,,0.00,0.00,VWS V14.01,2013-01-17 10:38:00,
2013-01-17 02:43:00,33.2,26.8,30.17,NW,322,0.0,0.0,77,0.00,,,0.00,0.00,VWS V14.01,2013-01-17 10:43:00,
2013-01-17 02:48:00,33.2,26.8,30.17,NW,322,0.0,0.0,77,0.00,,,0.00,0.00,VWS V14.01,2013-01-17 10:48:00,
2013-01-17 02:53:00,33.2,26.8,30.17,NW,322,0.0,0.0,77,0.00,,,0.00,0.00,VWS V14.01,2013-01-17 10:53:00,
2013-01-17 02:58:00,33.4,27.0,30.17,NW,322,0.0,0.0,77,0.00,,,0.00,0.00,VWS V14.01,2013-01-17 10:58:00,
2013-01-17 03:03:00,33.2,26.8,30.17,NW,322,0.0,0.0,77,0.00,,,0.00,0.00,VWS V14.01,2013-01-17 11:03:00,
2013-01-17 03:08:00,33.1,27.0,30.17,NW,322,0.0,0.0,78,0.00,,,0.00,0.00,VWS V14.01,2013-01-17 11:08:00,
2013-01-17 03:13:00,33.1,26.7,30.17,NW,322,0.0,0.0,77,0.00,,,0.00,0.00,VWS V14.01,2013-01-17 11:13:00,
2013-01-17 03:18:00,32.9,26.5,30.17,NW,322,0.0,0.0,77,0.00,,,0.00,0.00,VWS V14.01,2013-01-17 11:18:00,
2013-01-17 03:23:00,32.8,26.7,30.17,NW,322,0.0,0.0,78,0.00,,,0.00,0.00,VWS V14.01,2013-01-17 11:23:00,
2013-01-17 03:28:00,32.7,26.6,30.17,NW,322,0.0,0.0,78,0.00,,,0.00,0.00,VWS V14.01,2013-01-17 11:28:00,
2013-01-17 03:33:00,32.5,26.4,30.17,NW,322,0.0,0.0,78,0.00,,,0.00,0.00,VWS V14.01,2013-01-17 11:33:00,
2013-01-17 03:38:00,32.2,26.1,30.17,NW,322,0.0,0.0,78,0.00,,,0.00,0.00,VWS V14.01,2013-01-17 11:38:00,
2013-01-17 03:43:00,32.1,26.0,30.17,NW,322,0.0,0.0,78,0.00,,,0.00,0.00,VWS V14.01,2013-01-17 11:43:00,
2013-01-17 03:48:00,31.8,25.7,30.17,NW,322,0.0,0.0,78,0.00,,,0.00,0.00,VWS V14.01,2013-01-17 11:48:00,
2013-01-17 03:53:00,31.6,25.5,30.17,NW,322,0.0,0.0,78,0.00,,,0.00,0.00,VWS V14.01,2013-01-17 11:53:00,
2013-01-17 03:58:00,31.5,25.4,30.17,NW,322,0.0,0.0,78,0.00,,,0.00,0.00,VWS V14.01,2013-01-17 11:58:00,
2013-01-17 04:03:00,31.8,25.7,30.17,NW,322,0.0,0.0,78,0.00,,,0.00,0.00,VWS V14.01,2013-01-17 12:03:00,
2013-01-17 04:08:00,31.8,25.7,30.17,NW,322,0.0,0.0,78,0.00,,,0.00,0.00,VWS V14.01,2013-01-17 12:08:00,
2013-01-17 04:13:00,31.8,25.7,30.17,NW,322,0.0,0.0,78,0.00,,,0.00,0.00,VWS V14.01,2013-01-17 12:13:00,
2013-01-17 04:18:00,31.6,25.5,30.16,NW,322,0.0,0.0,78,0.00,,,0.00,0.00,VWS V14.01,2013-01-17 12:18:00,
2013-01-17 04:23:00,31.8,26.0,30.16,NW,322,0.0,0.0,79,0.00,,,0.00,0.00,VWS V14.01,2013-01-17 12:23:00,
2013-01-17 04:28:00,31.6,25.9,30.16,NW,322,0.0,0.0,79,0.00,,,0.00,0.00,VWS V14.01,2013-01-17 12:28:00,
2013-01-17 04:33:00,31.6,25.9,30.16,NW,322,0.0,0.0,79,0.00,,,0.00,0.00,VWS V14.01,2013-01-17 12:33:00,
2013-01-17 04:38:00,31.5,25.8,30.16,NW,322,0.0,0.0,79,0.00,,,0.00,0.00,VWS V14.01,2013-01-17 12:38:00,
2013-01-17 04:43:00,31.3,25.6,30.16,NW,322,0.0,0.0,79,0.00,,,0.00,0.00,VWS V14.01,2013-01-17 12:43:00,
2013-01-17 04:48:00,31.3,25.6,30.16,NW,322,0.0,0.0,79,0.00,,,0.00,0.00,VWS V14.01,2013-01-17 12:48:00,
2013-01-17 04:53:00,31.2,25.5,30.16,NW,322,0.0,0.0,79,0.00,,,0.00,0.00,VWS V14.01,2013-01-17 12:53:00,
2013-01-17 04:58:00,31.2,25.5,30.16,NW,322,0.0,0.0,79,0.00,,,0.00,0.00,VWS V14.01,2013-01-17 12:58:00,
2013-01-17 05:03:00,30.7,25.0,30.16,NW,322,0.0,0.0,79,0.00,,,0.00,0.00,VWS V14.01,2013-01-17 13:03:00,
2013-01-17 05:08:00,30.7,25.0,30.16,NW,322,0.0,0.0,79,0.00,,,0.00,0.00,VWS V14.01,2013-01-17 13:08:00,
2013-01-17 05:13:00,30.6,24.9,30.16,NW,322,0.0,0.0,79,0.00,,,0.00,0.00,VWS V14.01,2013-01-17 13:13:00,
2013-01-17 05:18:00,30.6,24.9,30.16,NW,322,0.0,0.0,79,0.00,,,0.00,0.00,VWS V14.01,2013-01-17 13:18:00,
2013-01-17 05:23:00,30.6,24.9,30.16,NW,322,0.0,0.0,79,0.00,,,0.00,0.00,VWS V14.01,2013-01-17 13:23:00,
2013-01-17 05:28:00,30.4,24.7,30.16,NW,322,0.0,0.0,79,0.00,,,0.00,0.00,VWS V14.01,2013-01-17 13:28:00,
2013-01-17 05:33:00,30.3,24.6,30.16,NW,322,0.0,0.0,79,0.00,,,0.00,0.00,VWS V14.01,2013-01-17 13:33:00,
2013-01-17 05:38:00,30.4,25.0,30.16,NW,322,0.0,0.0,80,0.00,,,0.00,0.00,VWS V14.01,2013-01-17 13:38:00,
2013-01-17 05:43:00,30.4,25.0,30.16,NW,322,0.0,0.0,80,0.00,,,0.00,0.00,VWS V14.01,2013-01-17 13:43:00,
2013-01-17 05:48:00,30.4,25.0,30.16,NW,322,0.0,0.0,80,0.00,,,0.00,0.00,VWS V14.01,2013-01-17 13:48:00,
2013-01-17 05:53:00,30.4,25.0,30.16,NW,322,0.0,0.0,80,0.00,,,0.00,0.00,VWS V14.01,2013-01-17 13:53:00,
2013-01-17 05:58:00,30.7,25.3,30.16,NW,322,0.0,0.0,80,0.00,,,0.00,0.00,VWS V14.01,2013-01-17 13:58:00,
2013-01-17 06:03:00,30.7,25.3,30.16,NW,322,0.0,0.0,80,0.00,,,0.00,0.00,VWS V14.01,2013-01-17 14:03:00,
2013-01-17 06:08:00,30.7,25.3,30.16,NW,322,0.0,0.0,80,0.00,,,0.00,0.00,VWS V14.01,2013-01-17 14:08:00,
2013-01-17 06:13:00,30.6,25.2,30.16,NW,322,0.0,0.0,80,0.00,,,0.00,0.00,VWS V14.01,2013-01-17 14:13:00,
2013-01-17 06:18:00,30.6,25.2,30.16,NW,322,0.0,0.0,80,0.00,,,0.00,0.00,VWS V14.01,2013-01-17 14:18:00,
2013-01-17 06:23:00,30.6,25.2,30.16,NW,322,0.0,0.0,80,0.00,,,0.00,0.00,VWS V14.01,2013-01-17 14:23:00,
2013-01-17 06:28:00,30.4,25.0,30.16,NW,322,0.0,0.0,80,0.00,,,0.00,0.00,VWS V14.01,2013-01-17 14:28:00,
2013-01-17 06:33:00,30.3,24.9,30.17,West,277,0.0,0.0,80,0.00,,,0.00,0.00,VWS V14.01,2013-01-17 14:33:00,
2013-01-17 06:38:00,30.3,24.9,30.17,NW,322,0.0,0.0,80,0.00,,,0.00,0.00,VWS V14.01,2013-01-17 14:38:00,
2013-01-17 06:43:00,30.3,24.9,30.17,NW,322,0.0,0.0,80,0.00,,,0.00,0.00,VWS V14.01,2013-01-17 14:43:00,
2013-01-17 06:48:00,30.1,24.7,30.17,NW,322,0.0,0.0,80,0.00,,,0.00,0.00,VWS V14.01,2013-01-17 14:48:00,
2013-01-17 06:53:00,30.1,24.7,30.17,NW,322,0.0,0.0,80,0.00,,,0.00,0.00,VWS V14.01,2013-01-17 14:53:00,
2013-01-17 06:58:00,30.1,24.7,30.17,NW,320,0.0,0.0,80,0.00,,,0.00,0.00,VWS V14.01,2013-01-17 14:58:00,
2013-01-17 07:03:00,30.0,24.6,30.17,NW,322,0.0,0.0,80,0.00,,,0.00,0.00,VWS V14.01,2013-01-17 15:03:00,
2013-01-17 07:08:00,30.1,24.7,30.17,NW,322,0.0,0.0,80,0.00,,,0.00,0.00,VWS V14.01,2013-01-17 15:08:00,
2013-01-17 07:13:00,30.3,24.9,30.17,NW,322,0.0,0.0,80,0.00,,,0.00,0.00,VWS V14.01,2013-01-17 15:13:00,
2013-01-17 07:18:00,30.3,24.9,30.17,NW,322,0.0,0.0,80,0.00,,,0.00,0.00,VWS V14.01,2013-01-17 15:18:00,
2013-01-17 07:23:00,30.3,24.9,30.17,NW,322,0.0,0.0,80,0.00,,,0.00,7.00,VWS V14.01,2013-01-17 15:23:00,
2013-01-17 07:28:00,30.3,24.9,30.17,NW,322,0.0,0.0,80,0.00,,,0.00,30.00,VWS V14.01,2013-01-17 15:28:00,
2013-01-17 07:33:00,30.4,25.3,30.17,NW,322,0.0,0.0,81,0.00,,,0.00,37.00,VWS V14.01,2013-01-17 15:33:00,
2013-01-17 07:38:00,30.7,25.3,30.17,NW,322,0.0,0.0,80,0.00,,,0.00,37.00,VWS V14.01,2013-01-17 15:38:00,
2013-01-17 07:43:00,31.2,25.8,30.17,NW,322,0.0,0.0,80,0.00,,,0.00,63.00,VWS V14.01,2013-01-17 15:43:00,
2013-01-17 07:48:00,31.6,26.1,30.18,NW,320,0.0,0.0,80,0.00,,,0.00,84.00,VWS V14.01,2013-01-17 15:48:00,
2013-01-17 07:53:00,32.1,26.6,30.18,NW,322,0.0,0.0,80,0.00,,,0.00,97.00,VWS V14.01,2013-01-17 15:53:00,
2013-01-17 07:58:00,32.7,27.5,30.18,NW,322,0.0,0.0,81,0.00,,,0.00,97.00,VWS V14.01,2013-01-17 15:58:00,
2013-01-17 08:03:00,33.2,28.0,30.18,NW,322,0.0,0.0,81,0.00,,,0.00,120.00,VWS V14.01,2013-01-17 16:03:00,
2013-01-17 08:08:00,33.7,28.5,30.18,NW,322,0.0,0.0,81,0.00,,,0.00,130.00,VWS V14.01,2013-01-17 16:08:00,
2013-01-17 08:13:00,34.1,28.9,30.18,NW,322,0.0,0.0,81,0.00,,,0.00,137.00,VWS V14.01,2013-01-17 16:13:00,
2013-01-17 08:18:00,34.6,29.4,30.19,NW,322,0.0,0.0,81,0.00,,,0.00,158.00,VWS V14.01,2013-01-17 16:18:00,
2013-01-17 08:23:00,35.5,30.3,30.19,NW,322,0.0,0.0,81,0.00,,,0.00,171.00,VWS V14.01,2013-01-17 16:23:00,
2013-01-17 08:28:00,35.9,30.6,30.19,NW,322,0.0,0.0,81,0.00,,,0.00,188.00,VWS V14.01,2013-01-17 16:28:00,
2013-01-17 08:33:00,36.3,31.0,30.19,NW,322,0.0,0.0,81,0.00,,,0.00,204.00,VWS V14.01,2013-01-17 16:33:00,
2013-01-17 08:38:00,37.0,31.4,30.19,NW,326,0.0,0.0,80,0.00,,,0.00,225.00,VWS V14.01,2013-01-17 16:38:00,
2013-01-17 08:43:00,37.6,32.0,30.19,NW,326,0.0,0.0,80,0.00,,,0.00,245.00,VWS V14.01,2013-01-17 16:43:00,
2013-01-17 08:48:00,38.2,32.6,30.20,NW,326,0.0,0.0,80,0.00,,,0.00,262.00,VWS V14.01,2013-01-17 16:48:00,
2013-01-17 08:53:00,38.8,32.9,30.20,NW,326,0.0,0.0,79,0.00,,,0.00,278.00,VWS V14.01,2013-01-17 16:53:00,
2013-01-17 08:58:00,39.6,33.6,30.20,NW,326,0.0,0.0,79,0.00,,,0.00,283.00,VWS V14.01,2013-01-17 16:58:00,
2013-01-17 09:03:00,40.2,33.6,30.20,NNW,335,0.0,2.0,77,0.00,,,0.00,297.00,VWS V14.01,2013-01-17 17:03:00,
2013-01-17 09:08:00,41.1,34.5,30.20,NNW,336,0.0,0.0,77,0.00,,,0.00,317.00,VWS V14.01,2013-01-17 17:08:00,
2013-01-17 09:13:00,41.3,34.3,30.20,ENE,61,2.0,6.0,76,0.00,,,0.00,331.00,VWS V14.01,2013-01-17 17:13:00,
2013-01-17 09:18:00,41.9,34.6,30.20,ENE,62,2.0,2.0,75,0.00,,,0.00,338.00,VWS V14.01,2013-01-17 17:18:00,
2013-01-17 09:23:00,42.3,34.6,30.20,ENE,62,0.0,2.0,74,0.00,,,0.00,359.00,VWS V14.01,2013-01-17 17:23:00,
2013-01-17 09:28:00,42.9,34.8,30.20,ENE,62,0.0,2.0,73,0.00,,,0.00,371.00,VWS V14.01,2013-01-17 17:28:00,
2013-01-17 09:33:00,43.8,35.4,30.20,ENE,62,0.0,2.0,72,0.00,,,0.00,378.00,VWS V14.01,2013-01-17 17:33:00,
2013-01-17 09:38:00,44.8,36.0,30.20,ENE,62,0.0,1.0,71,0.00,,,0.00,396.00,VWS V14.01,2013-01-17 17:38:00,
2013-01-17 09:43:00,45.1,35.5,30.20,ENE,66,2.0,6.0,69,0.00,,,0.00,408.00,VWS V14.01,2013-01-17 17:43:00,
2013-01-17 09:48:00,44.9,35.4,30.20,SE,136,2.0,6.0,69,0.00,,,0.00,419.00,VWS V14.01,2013-01-17 17:48:00,
2013-01-17 09:53:00,45.4,34.7,30.20,SE,136,0.0,4.0,66,0.00,,,0.00,429.00,VWS V14.01,2013-01-17 17:53:00,
2013-01-17 09:58:00,46.2,35.1,30.20,SE,136,4.0,4.0,65,0.00,,,0.00,440.00,VWS V14.01,2013-01-17 17:58:00,
2013-01-17 10:03:00,46.4,34.9,30.19,SE,138,2.0,6.0,64,0.00,,,0.00,450.00,VWS V14.01,2013-01-17 18:03:00,
2013-01-17 10:08:00,46.8,34.9,30.19,SE,140,4.0,4.0,63,0.00,,,0.00,456.00,VWS V14.01,2013-01-17 18:08:00,
2013-01-17 10:13:00,47.1,34.8,30.19,SE,140,1.0,4.0,62,0.00,,,0.00,468.00,VWS V14.01,2013-01-17 18:13:00,
2013-01-17 10:18:00,47.7,34.5,30.19,SE,140,0.0,2.0,60,0.00,,,0.00,482.00,VWS V14.01,2013-01-17 18:18:00,
2013-01-17 10:23:00,47.7,34.1,30.19,SE,143,4.0,6.0,59,0.00,,,0.00,486.00,VWS V14.01,2013-01-17 18:23:00,
2013-01-17 10:28:00,48.2,34.1,30.19,SE,140,0.0,4.0,58,0.00,,,0.00,494.00,VWS V14.01,2013-01-17 18:28:00,
2013-01-17 10:33:00,48.9,34.3,30.18,SE,140,1.0,4.0,57,0.00,,,0.00,500.00,VWS V14.01,2013-01-17 18:33:00,
2013-01-17 10:38:00,49.9,35.3,30.18,SE,140,1.0,1.0,57,0.00,,,0.00,503.00,VWS V14.01,2013-01-17 18:38:00,
2013-01-17 10:43:00,50.1,35.0,30.18,SE,140,0.0,4.0,56,0.00,,,0.00,519.00,VWS V14.01,2013-01-17 18:43:00,
2013-01-17 10:48:00,50.1,34.1,30.17,SE,145,0.0,4.0,54,0.00,,,0.00,528.00,VWS V14.01,2013-01-17 18:48:00,
2013-01-17 10:53:00,50.7,34.2,30.17,SE,145,0.0,2.0,53,0.00,,,0.00,533.00,VWS V14.01,2013-01-17 18:53:00,
2013-01-17 10:58:00,51.6,34.6,30.17,SE,145,0.0,0.0,52,0.00,,,0.00,535.00,VWS V14.01,2013-01-17 18:58:00,
2013-01-17 11:03:00,52.3,34.7,30.17,SE,145,0.0,0.0,51,0.00,,,0.00,551.00,VWS V14.01,2013-01-17 19:03:00,
2013-01-17 11:08:00,51.9,33.9,30.17,SSE,148,0.0,0.0,50,0.00,,,0.00,551.00,VWS V14.01,2013-01-17 19:08:00,
2013-01-17 11:13:00,52.2,34.6,30.17,SSE,148,0.0,0.0,51,0.00,,,0.00,558.00,VWS V14.01,2013-01-17 19:13:00,
2013-01-17 11:18:00,52.3,33.7,30.16,SSE,157,0.0,4.0,49,0.00,,,0.00,563.00,VWS V14.01,2013-01-17 19:18:00,
2013-01-17 11:23:00,52.3,33.7,30.16,SSE,158,0.0,2.0,49,0.00,,,0.00,567.00,VWS V14.01,2013-01-17 19:23:00,
2013-01-17 11:28:00,52.3,33.2,30.16,SSE,158,0.0,0.0,48,0.00,,,0.00,574.00,VWS V14.01,2013-01-17 19:28:00,
2013-01-17 11:33:00,52.3,32.7,30.15,SSE,161,1.0,1.0,47,0.00,,,0.00,561.00,VWS V14.01,2013-01-17 19:33:00,
2013-01-17 11:38:00,52.5,32.3,30.15,South,174,1.0,2.0,46,0.00,,,0.00,554.00,VWS V14.01,2013-01-17 19:38:00,
2013-01-17 11:43:00,52.9,33.2,30.15,South,174,0.0,0.0,47,0.00,,,0.00,577.00,VWS V14.01,2013-01-17 19:43:00,
2013-01-17 11:48:00,53.9,33.6,30.14,South,174,0.0,0.0,46,0.00,,,0.00,570.00,VWS V14.01,2013-01-17 19:48:00,
2013-01-17 11:53:00,54.4,33.0,30.14,South,175,0.0,0.0,44,0.00,,,0.00,579.00,VWS V14.01,2013-01-17 19:53:00,
2013-01-17 11:58:00,54.2,32.2,30.14,South,182,4.0,4.0,43,0.00,,,0.00,584.00,VWS V14.01,2013-01-17 19:58:00,
2013-01-17 12:03:00,54.4,31.8,30.13,South,182,0.0,1.0,42,0.00,,,0.00,589.00,VWS V14.01,2013-01-17 20:03:00,
2013-01-17 12:08:00,54.4,32.4,30.13,South,182,0.0,0.0,43,0.00,,,0.00,588.00,VWS V14.01,2013-01-17 20:08:00,
2013-01-17 12:13:00,55.6,32.3,30.13,South,182,0.0,0.0,41,0.00,,,0.00,586.00,VWS V14.01,2013-01-17 20:13:00,
2013-01-17 12:18:00,56.2,32.8,30.12,South,182,0.0,0.0,41,0.00,,,0.00,586.00,VWS V14.01,2013-01-17 20:18:00,
2013-01-17 12:23:00,56.6,33.2,30.12,South,182,0.0,0.0,41,0.00,,,0.00,582.00,VWS V14.01,2013-01-17 20:23:00,
2013-01-17 12:28:00,56.3,32.3,30.12,South,184,0.0,0.0,40,0.00,,,0.00,581.00,VWS V14.01,2013-01-17 20:28:00,
2013-01-17 12:33:00,56.5,32.5,30.11,South,184,0.0,0.0,40,0.00,,,0.00,579.00,VWS V14.01,2013-01-17 20:33:00,
2013-01-17 12:38:00,56.7,31.4,30.11,South,184,0.0,0.0,38,0.00,,,0.00,560.00,VWS V14.01,2013-01-17 20:38:00,
2013-01-17 12:43:00,57.6,32.2,30.11,South,184,0.0,0.0,38,0.00,,,0.00,574.00,VWS V14.01,2013-01-17 20:43:00,
2013-01-17 12:48:00,57.6,32.2,30.11,South,186,4.0,4.0,38,0.00,,,0.00,575.00,VWS V14.01,2013-01-17 20:48:00,
2013-01-17 12:53:00,56.6,32.0,30.11,South,188,0.0,1.0,39,0.00,,,0.00,568.00,VWS V14.01,2013-01-17 20:53:00,
2013-01-17 12:58:00,57.0,32.9,30.11,South,191,0.0,0.0,40,0.00,,,0.00,563.00,VWS V14.01,2013-01-17 20:58:00,
2013-01-17 13:03:00,56.9,32.2,30.10,South,191,0.0,1.0,39,0.00,,,0.00,560.00,VWS V14.01,2013-01-17 21:03:00,
2013-01-17 13:08:00,57.2,31.8,30.10,SSW,196,2.0,2.0,38,0.00,,,0.00,552.00,VWS V14.01,2013-01-17 21:08:00,
2013-01-17 13:13:00,57.3,31.9,30.10,SSW,196,0.0,0.0,38,0.00,,,0.00,549.00,VWS V14.01,2013-01-17 21:13:00,
2013-01-17 13:18:00,57.5,30.8,30.10,SSW,196,0.0,0.0,36,0.00,,,0.00,547.00,VWS V14.01,2013-01-17 21:18:00,
2013-01-17 13:23:00,58.0,31.2,30.10,SSW,196,0.0,1.0,36,0.00,,,0.00,540.00,VWS V14.01,2013-01-17 21:23:00,
2013-01-17 13:28:00,58.3,32.8,30.10,SSW,196,0.0,0.0,38,0.00,,,0.00,535.00,VWS V14.01,2013-01-17 21:28:00,
2013-01-17 13:33:00,58.6,31.0,30.09,SSW,198,0.0,0.0,35,0.00,,,0.00,526.00,VWS V14.01,2013-01-17 21:33:00,
2013-01-17 13:38:00,59.2,33.0,30.09,SSW,198,0.0,0.0,37,0.00,,,0.00,519.00,VWS V14.01,2013-01-17 21:38:00,
2013-01-17 13:43:00,58.7,30.4,30.09,SSW,200,0.0,2.0,34,0.00,,,0.00,512.00,VWS V14.01,2013-01-17 21:43:00,
2013-01-17 13:48:00,58.9,30.6,30.09,SSW,200,0.0,0.0,34,0.00,,,0.00,503.00,VWS V14.01,2013-01-17 21:48:00,
2013-01-17 13:53:00,60.4,31.2,30.09,SSW,202,0.0,0.0,33,0.00,,,0.00,494.00,VWS V14.01,2013-01-17 21:53:00,
2013-01-17 13:58:00,59.6,30.5,30.09,SSW,210,0.0,4.0,33,0.00,,,0.00,489.00,VWS V14.01,2013-01-17 21:58:00,
2013-01-17 14:03:00,60.1,32.4,30.08,SSW,210,0.0,0.0,35,0.00,,,0.00,473.00,VWS V14.01,2013-01-17 22:03:00,
2013-01-17 14:08:00,61.5,32.2,30.08,SSW,210,0.0,0.0,33,0.00,,,0.00,465.00,VWS V14.01,2013-01-17 22:08:00,
2013-01-17 14:13:00,60.4,31.2,30.08,SW,222,4.0,4.0,33,0.00,,,0.00,454.00,VWS V14.01,2013-01-17 22:13:00,
2013-01-17 14:18:00,59.9,31.5,30.08,SW,224,0.0,0.0,34,0.00,,,0.00,443.00,VWS V14.01,2013-01-17 22:18:00,
2013-01-17 14:23:00,59.9,31.5,30.08,SW,224,0.0,2.0,34,0.00,,,0.00,429.00,VWS V14.01,2013-01-17 22:23:00,
2013-01-17 14:28:00,59.8,31.4,30.08,WSW,239,1.0,4.0,34,0.00,,,0.00,419.00,VWS V14.01,2013-01-17 22:28:00,
2013-01-17 14:33:00,60.7,31.5,30.08,WSW,239,0.0,0.0,33,0.00,,,0.00,403.00,VWS V14.01,2013-01-17 22:33:00,
2013-01-17 14:38:00,62.1,31.9,30.08,WSW,239,0.0,0.0,32,0.00,,,0.00,399.00,VWS V14.01,2013-01-17 22:38:00,
2013-01-17 14:43:00,62.7,32.4,30.08,WSW,239,0.0,1.0,32,0.00,,,0.00,389.00,VWS V14.01,2013-01-17 22:43:00,
2013-01-17 14:48:00,62.1,31.9,30.08,WSW,239,2.0,2.0,32,0.00,,,0.00,373.00,VWS V14.01,2013-01-17 22:48:00,
2013-01-17 14:53:00,61.0,31.0,30.08,WSW,247,0.0,0.0,32,0.00,,,0.00,364.00,VWS V14.01,2013-01-17 22:53:00,
2013-01-17 14:58:00,62.0,32.6,30.08,WSW,247,0.0,0.0,33,0.00,,,0.00,354.00,VWS V14.01,2013-01-17 22:58:00,
2013-01-17 15:03:00,61.6,33.0,30.08,WSW,251,0.0,1.0,34,0.00,,,0.00,334.00,VWS V14.01,2013-01-17 23:03:00,
2013-01-17 15:08:00,62.0,31.8,30.08,WSW,251,0.0,0.0,32,0.00,,,0.00,322.00,VWS V14.01,2013-01-17 23:08:00,
2013-01-17 15:13:00,61.2,31.9,30.08,WSW,251,0.0,2.0,33,0.00,,,0.00,311.00,VWS V14.01,2013-01-17 23:13:00,
2013-01-17 15:18:00,62.1,31.9,30.08,WSW,251,0.0,0.0,32,0.00,,,0.00,297.00,VWS V14.01,2013-01-17 23:18:00,
2013-01-17 15:23:00,61.3,31.2,30.08,WSW,251,0.0,1.0,32,0.00,,,0.00,289.00,VWS V14.01,2013-01-17 23:23:00,
2013-01-17 15:28:00,61.3,32.0,30.08,WSW,251,0.0,4.0,33,0.00,,,0.00,267.00,VWS V14.01,2013-01-17 23:28:00,
2013-01-17 15:33:00,62.0,31.8,30.08,WSW,251,0.0,1.0,32,0.00,,,0.00,266.00,VWS V14.01,2013-01-17 23:33:00,
2013-01-17 15:38:00,62.7,31.6,30.08,WSW,251,0.0,2.0,31,0.00,,,0.00,241.00,VWS V14.01,2013-01-17 23:38:00,
2013-01-17 15:43:00,62.9,31.8,30.08,WSW,251,0.0,0.0,31,0.00,,,0.00,227.00,VWS V14.01,2013-01-17 23:43:00,
2013-01-17 15:49:00,62.6,31.6,30.07,WSW,251,0.0,1.0,31,0.00,,,0.00,211.00,VWS V14.01,2013-01-17 23:49:00,
2013-01-17 15:53:00,62.1,32.7,30.07,WSW,251,0.0,0.0,33,0.00,,,0.00,197.00,VWS V14.01,2013-01-17 23:53:00,
2013-01-17 15:58:00,61.8,31.6,30.07,WSW,251,0.0,1.0,32,0.00,,,0.00,197.00,VWS V14.01,2013-01-17 23:58:00,
2013-01-17 16:03:00,61.3,32.7,30.07,WSW,251,0.0,0.0,34,0.00,,,0.00,172.00,VWS V14.01,2013-01-18 00:03:00,
2013-01-17 16:09:00,62.0,33.3,30.07,WSW,251,0.0,0.0,34,0.00,,,0.00,155.00,VWS V14.01,2013-01-18 00:09:00,
2013-01-17 16:14:00,61.8,33.2,30.07,WSW,251,0.0,0.0,34,0.00,,,0.00,137.00,VWS V14.01,2013-01-18 00:14:00,
2013-01-17 16:19:00,61.5,32.9,30.08,WSW,251,0.0,0.0,34,0.00,,,0.00,125.00,VWS V14.01,2013-01-18 00:19:00,
2013-01-17 16:24:00,61.6,33.7,30.08,WSW,251,0.0,0.0,35,0.00,,,0.00,113.00,VWS V14.01,2013-01-18 00:24:00,
2013-01-17 16:29:00,61.6,33.7,30.08,WSW,251,0.0,0.0,35,0.00,,,0.00,72.00,VWS V14.01,2013-01-18 00:29:00,
2013-01-17 16:34:00,61.2,34.1,30.08,WSW,251,0.0,0.0,36,0.00,,,0.00,79.00,VWS V14.01,2013-01-18 00:34:00,
2013-01-17 16:39:00,60.9,33.8,30.08,WSW,251,0.0,0.0,36,0.00,,,0.00,69.00,VWS V14.01,2013-01-18 00:39:00,
2013-01-17 16:44:00,60.7,34.3,30.08,WSW,251,0.0,0.0,37,0.00,,,0.00,49.00,VWS V14.01,2013-01-18 00:44:00,
2013-01-17 16:49:00,60.2,35.2,30.08,WSW,251,0.0,0.0,39,0.00,,,0.00,39.00,VWS V14.01,2013-01-18 00:49:00,
2013-01-17 16:54:00,59.9,34.9,30.08,WSW,251,0.0,0.0,39,0.00,,,0.00,30.00,VWS V14.01,2013-01-18 00:54:00,
2013-01-17 16:59:00,59.5,35.2,30.08,WSW,251,0.0,0.0,40,0.00,,,0.00,14.00,VWS V14.01,2013-01-18 00:59:00,
2013-01-17 17:04:00,59.0,34.7,30.08,WSW,251,0.0,0.0,40,0.00,,,0.00,7.00,VWS V14.01,2013-01-18 01:04:00,
2013-01-17 17:09:00,58.4,34.8,30.08,WSW,251,0.0,0.0,41,0.00,,,0.00,0.00,VWS V14.01,2013-01-18 01:09:00,
2013-01-17 17:14:00,57.8,34.9,30.08,WSW,251,0.0,0.0,42,0.00,,,0.00,0.00,VWS V14.01,2013-01-18 01:14:00,
2013-01-17 17:19:00,57.2,34.9,30.08,WSW,251,0.0,0.0,43,0.00,,,0.00,0.00,VWS V14.01,2013-01-18 01:19:00,
2013-01-17 17:24:00,56.6,35.0,30.08,WSW,251,0.0,0.0,44,0.00,,,0.00,0.00,VWS V14.01,2013-01-18 01:24:00,
2013-01-17 17:29:00,56.2,35.2,30.08,WSW,251,0.0,0.0,45,0.00,,,0.00,0.00,VWS V14.01,2013-01-18 01:29:00,
2013-01-17 17:34:00,55.7,35.3,30.09,WSW,251,0.0,0.0,46,0.00,,,0.00,0.00,VWS V14.01,2013-01-18 01:34:00,
2013-01-17 17:39:00,55.3,35.4,30.09,WSW,251,0.0,0.0,47,0.00,,,0.00,0.00,VWS V14.01,2013-01-18 01:39:00,
2013-01-17 17:44:00,54.8,35.0,30.09,WSW,251,0.0,0.0,47,0.00,,,0.00,0.00,VWS V14.01,2013-01-18 01:44:00,
2013-01-17 17:49:00,54.5,35.2,30.09,WSW,251,0.0,0.0,48,0.00,,,0.00,0.00,VWS V14.01,2013-01-18 01:49:00,
2013-01-17 17:54:00,53.9,35.2,30.09,WSW,251,0.0,0.0,49,0.00,,,0.00,0.00,VWS V14.01,2013-01-18 01:54:00,
2013-01-17 17:59:00,53.5,35.3,30.09,WSW,251,0.0,0.0,50,0.00,,,0.00,0.00,VWS V14.01,2013-01-18 01:59:00,
2013-01-17 18:04:00,53.1,35.5,30.09,WSW,251,0.0,0.0,51,0.00,,,0.00,0.00,VWS V14.01,2013-01-18 02:04:00,
2013-01-17 18:09:00,52.6,35.5,30.09,WSW,251,0.0,0.0,52,0.00,,,0.00,0.00,VWS V14.01,2013-01-18 02:09:00,
2013-01-17 18:14:00,52.3,35.7,30.09,WSW,251,0.0,0.0,53,0.00,,,0.00,0.00,VWS V14.01,2013-01-18 02:14:00,
2013-01-17 18:19:00,52.0,35.4,30.09,WSW,251,0.0,0.0,53,0.00,,,0.00,0.00,VWS V14.01,2013-01-18 02:19:00,
2013-01-17 18:24:00,51.7,35.6,30.09,WSW,251,0.0,0.0,54,0.00,,,0.00,0.00,VWS V14.01,2013-01-18 02:24:00,
2013-01-17 18:29:00,51.4,35.3,30.09,WSW,251,0.0,0.0,54,0.00,,,0.00,0.00,VWS V14.01,2013-01-18 02:29:00,
2013-01-17 18:34:00,51.0,35.4,30.09,WSW,251,0.0,0.0,55,0.00,,,0.00,0.00,VWS V14.01,2013-01-18 02:34:00,
2013-01-17 18:39:00,50.4,35.3,30.09,WSW,253,0.0,0.0,56,0.00,,,0.00,0.00,VWS V14.01,2013-01-18 02:39:00,
2013-01-17 18:44:00,49.6,35.0,30.09,WSW,253,0.0,0.0,57,0.00,,,0.00,0.00,VWS V14.01,2013-01-18 02:44:00,
2013-01-17 18:49:00,49.5,35.3,30.09,WSW,253,0.0,0.0,58,0.00,,,0.00,0.00,VWS V14.01,2013-01-18 02:49:00,
2013-01-17 18:54:00,49.2,35.1,30.09,WSW,253,0.0,0.0,58,0.00,,,0.00,0.00,VWS V14.01,2013-01-18 02:54:00,
2013-01-17 18:59:00,48.9,34.8,30.09,WSW,253,0.0,0.0,58,0.00,,,0.00,0.00,VWS V14.01,2013-01-18 02:59:00,
2013-01-17 19:04:00,48.6,34.9,30.10,WSW,253,0.0,0.0,59,0.00,,,0.00,0.00,VWS V14.01,2013-01-18 03:04:00,
2013-01-17 19:09:00,48.3,34.7,30.10,WSW,253,0.0,0.0,59,0.00,,,0.00,0.00,VWS V14.01,2013-01-18 03:09:00,
2013-01-17 19:14:00,47.9,34.7,30.10,WSW,253,0.0,0.0,60,0.00,,,0.00,0.00,VWS V14.01,2013-01-18 03:14:00,
2013-01-17 19:19:00,47.6,34.4,30.10,WSW,253,0.0,0.0,60,0.00,,,0.00,0.00,VWS V14.01,2013-01-18 03:19:00,
2013-01-17 19:24:00,47.4,34.2,30.10,WSW,253,0.0,0.0,60,0.00,,,0.00,0.00,VWS V14.01,2013-01-18 03:24:00,
2013-01-17 19:29:00,47.1,34.4,30.10,WSW,253,0.0,0.0,61,0.00,,,0.00,0.00,VWS V14.01,2013-01-18 03:29:00,
2013-01-17 19:34:00,46.8,34.1,30.10,WSW,253,0.0,0.0,61,0.00,,,0.00,0.00,VWS V14.01,2013-01-18 03:34:00,
2013-01-17 19:39:00,46.7,34.4,30.10,WSW,253,0.0,0.0,62,0.00,,,0.00,0.00,VWS V14.01,2013-01-18 03:39:00,
2013-01-17 19:44:00,46.2,33.9,30.10,WSW,253,0.0,0.0,62,0.00,,,0.00,0.00,VWS V14.01,2013-01-18 03:44:00,
2013-01-17 19:49:00,45.7,33.8,30.10,WSW,253,0.0,0.0,63,0.00,,,0.00,0.00,VWS V14.01,2013-01-18 03:49:00,
2013-01-17 19:54:00,45.2,33.4,30.10,WSW,253,0.0,0.0,63,0.00,,,0.00,0.00,VWS V14.01,2013-01-18 03:54:00,
2013-01-17 19:59:00,44.8,33.4,30.10,WSW,253,0.0,0.0,64,0.00,,,0.00,0.00,VWS V14.01,2013-01-18 03:59:00,
2013-01-17 20:04:00,44.5,33.1,30.10,WSW,254,0.0,0.0,64,0.00,,,0.00,0.00,VWS V14.01,2013-01-18 04:04:00,
2013-01-17 20:09:00,44.2,32.8,30.10,WSW,254,0.0,0.0,64,0.00,,,0.00,0.00,VWS V14.01,2013-01-18 04:09:00,
2013-01-17 20:14:00,44.1,33.1,30.10,WSW,254,0.0,0.0,65,0.00,,,0.00,0.00,VWS V14.01,2013-01-18 04:14:00,
2013-01-17 20:19:00,43.9,32.9,30.10,WSW,254,0.0,0.0,65,0.00,,,0.00,0.00,VWS V14.01,2013-01-18 04:19:00,
2013-01-17 20:24:00,43.6,33.0,30.10,WSW,254,0.0,0.0,66,0.00,,,0.00,0.00,VWS V14.01,2013-01-18 04:24:00,
2013-01-17 20:29:00,43.5,32.9,30.10,WSW,254,0.0,0.0,66,0.00,,,0.00,0.00,VWS V14.01,2013-01-18 04:29:00,
2013-01-17 20:34:00,43.3,33.1,30.09,WSW,254,0.0,0.0,67,0.00,,,0.00,0.00,VWS V14.01,2013-01-18 04:34:00,
2013-01-17 20:39:00,43.1,32.9,30.09,WSW,254,0.0,0.0,67,0.00,,,0.00,0.00,VWS V14.01,2013-01-18 04:39:00,
2013-01-17 20:44:00,42.8,32.6,30.09,WSW,254,0.0,0.0,67,0.00,,,0.00,0.00,VWS V14.01,2013-01-18 04:44:00,
2013-01-17 20:49:00,42.5,32.3,30.10,WSW,254,0.0,0.0,67,0.00,,,0.00,0.00,VWS V14.01,2013-01-18 04:49:00,
2013-01-17 20:54:00,42.3,32.5,30.10,WSW,254,0.0,0.0,68,0.00,,,0.00,0.00,VWS V14.01,2013-01-18 04:54:00,
2013-01-17 20:59:00,42.2,32.4,30.10,WSW,254,0.0,0.0,68,0.00,,,0.00,0.00,VWS V14.01,2013-01-18 04:59:00,
2013-01-17 21:00:00,42.1,32.3,30.10,WSW,254,0.0,0.0,68,0.00,,,0.00,0.00,VWS V14.01,2013-01-18 05:00:00,
2013-01-17 21:01:00,42.1,32.3,30.10,WSW,254,0.0,0.0,68,0.00,,,0.00,0.00,VWS V14.01,2013-01-18 05:01:00,
2013-01-17 21:03:00,42.2,32.4,30.10,WSW,254,0.0,0.0,68,0.00,,,0.00,0.00,VWS V14.01,2013-01-18 05:03:00,
2013-01-17 21:08:00,42.1,32.7,30.10,WSW,254,0.0,0.0,69,0.00,,,0.00,0.00,VWS V14.01,2013-01-18 05:08:00,
2013-01-17 21:13:00,41.9,32.5,30.10,WSW,254,0.0,0.0,69,0.00,,,0.00,0.00,VWS V14.01,2013-01-18 05:13:00,
2013-01-17 21:18:00,41.8,32.4,30.10,WSW,254,0.0,0.0,69,0.00,,,0.00,0.00,VWS V14.01,2013-01-18 05:18:00,
2013-01-17 21:23:00,41.6,32.6,30.10,WSW,254,0.0,0.0,70,0.00,,,0.00,0.00,VWS V14.01,2013-01-18 05:23:00,
2013-01-17 21:28:00,41.5,32.5,30.10,WSW,254,0.0,0.0,70,0.00,,,0.00,0.00,VWS V14.01,2013-01-18 05:28:00,
2013-01-17 21:33:00,41.3,32.3,30.10,WSW,254,0.0,0.0,70,0.00,,,0.00,0.00,VWS V14.01,2013-01-18 05:33:00,
2013-01-17 21:38:00,41.2,32.2,30.10,WSW,254,0.0,0.0,70,0.00,,,0.00,0.00,VWS V14.01,2013-01-18 05:38:00,
2013-01-17 21:43:00,41.1,32.1,30.10,WSW,254,0.0,0.0,70,0.00,,,0.00,0.00,VWS V14.01,2013-01-18 05:43:00,
2013-01-17 21:48:00,40.6,31.6,30.10,WSW,254,0.0,0.0,70,0.00,,,0.00,0.00,VWS V14.01,2013-01-18 05:48:00,
2013-01-17 21:53:00,40.3,31.7,30.10,WSW,254,0.0,0.0,71,0.00,,,0.00,0.00,VWS V14.01,2013-01-18 05:53:00,
2013-01-17 21:58:00,40.1,31.5,30.10,WSW,254,0.0,0.0,71,0.00,,,0.00,0.00,VWS V14.01,2013-01-18 05:58:00,
2013-01-17 22:03:00,39.9,31.3,30.10,WSW,253,0.0,0.0,71,0.00,,,0.00,0.00,VWS V14.01,2013-01-18 06:03:00,
2013-01-17 22:08:00,39.8,31.5,30.10,WSW,254,0.0,0.0,72,0.00,,,0.00,0.00,VWS V14.01,2013-01-18 06:08:00,
2013-01-17 22:13:00,39.8,31.5,30.10,WSW,254,0.0,0.0,72,0.00,,,0.00,0.00,VWS V14.01,2013-01-18 06:13:00,
2013-01-17 22:18:00,39.9,32.0,30.09,WSW,254,0.0,0.0,73,0.00,,,0.00,0.00,VWS V14.01,2013-01-18 06:18:00,
2013-01-17 22:23:00,40.2,32.2,30.09,WSW,254,0.0,0.0,73,0.00,,,0.00,0.00,VWS V14.01,2013-01-18 06:23:00,
2013-01-17 22:28:00,39.9,32.0,30.09,WSW,254,0.0,0.0,73,0.00,,,0.00,0.00,VWS V14.01,2013-01-18 06:28:00,
2013-01-17 22:33:00,39.9,32.0,30.10,WSW,254,0.0,0.0,73,0.00,,,0.00,0.00,VWS V14.01,2013-01-18 06:33:00,
2013-01-17 22:38:00,39.8,31.9,30.10,WSW,254,0.0,0.0,73,0.00,,,0.00,0.00,VWS V14.01,2013-01-18 06:38:00,
2013-01-17 22:43:00,39.3,31.4,30.10,WSW,254,0.0,0.0,73,0.00,,,0.00,0.00,VWS V14.01,2013-01-18 06:43:00,
2013-01-17 22:48:00,38.6,30.7,30.10,WSW,254,0.0,0.0,73,0.00,,,0.00,0.00,VWS V14.01,2013-01-18 06:48:00,
2013-01-17 22:53:00,38.0,30.1,30.10,WSW,254,0.0,0.0,73,0.00,,,0.00,0.00,VWS V14.01,2013-01-18 06:53:00,
2013-01-17 22:58:00,37.6,30.1,30.10,WSW,254,0.0,0.0,74,0.00,,,0.00,0.00,VWS V14.01,2013-01-18 06:58:00,
2013-01-17 23:03:00,37.5,30.0,30.09,WSW,254,0.0,0.0,74,0.00,,,0.00,0.00,VWS V14.01,2013-01-18 07:03:00,
2013-01-17 23:08:00,37.6,30.1,30.09,WSW,254,2.0,2.0,74,0.00,,,0.00,0.00,VWS V14.01,2013-01-18 07:08:00,
2013-01-17 23:13:00,37.8,30.6,30.09,WSW,254,1.0,2.0,75,0.00,,,0.00,0.00,VWS V14.01,2013-01-18 07:13:00,
2013-01-17 23:18:00,37.6,30.4,30.09,WSW,254,0.0,0.0,75,0.00,,,0.00,0.00,VWS V14.01,2013-01-18 07:18:00,
2013-01-17 23:23:00,37.6,30.4,30.09,WSW,254,0.0,0.0,75,0.00,,,0.00,0.00,VWS V14.01,2013-01-18 07:23:00,
2013-01-17 23:28:00,37.6,30.4,30.09,WSW,254,0.0,0.0,75,0.00,,,0.00,0.00,VWS V14.01,2013-01-18 07:28:00,
2013-01-17 23:33:00,37.5,30.6,30.09,WSW,254,0.0,0.0,76,0.00,,,0.00,0.00,VWS V14.01,2013-01-18 07:33:00,
2013-01-17 23:38:00,37.5,30.6,30.09,WSW,254,0.0,0.0,76,0.00,,,0.00,0.00,VWS V14.01,2013-01-18 07:38:00,
2013-01-17 23:43:00,37.3,30.4,30.09,WSW,254,0.0,0.0,76,0.00,,,0.00,0.00,VWS V14.01,2013-01-18 07:43:00,
2013-01-17 23:48:00,37.2,30.4,30.10,WSW,254,0.0,0.0,76,0.00,,,0.00,0.00,VWS V14.01,2013-01-18 07:48:00,
2013-01-17 23:53:00,37.3,30.4,30.10,WSW,254,0.0,0.0,76,0.00,,,0.00,0.00,VWS V14.01,2013-01-18 07:53:00,
2013-01-17 23:58:00,37.3,30.4,30.10,WSW,254,0.0,0.0,76,0.00,,,0.00,0.00,VWS V14.01,2013-01-18 07:58:00,